GFSSGP_prec_pwat_057.txt.gz
Precipitable_Water
2.07 2.17 2.21 2.04 1.34 1.35 1.15 1.18 1.51 1.49 1.49 1.54 1.54 1.49 1.42 1.42 1.31 1.05 1.91 1.93 1.94 1.94 2.02 1.90 1.80 1.56 1.45 1.41 1.47 1.55 1.63 1.71 1.69 1.71 1.76 1.78 1.78 1.91 1.95 2.00 1.96 1.91 1.91 1.87 1.69 1.62 1.67 1.72 1.52
2.01 2.09 2.08 1.78 1.23 1.02 1.14 1.42 1.32 1.42 1.48 1.54 1.53 1.54 1.42 1.35 1.72 1.64 1.71 1.92 1.93 1.93 1.94 1.80 1.56 1.43 1.36 1.40 1.46 1.59 1.67 1.67 1.64 1.64 1.61 1.62 1.60 1.64 1.71 1.82 1.81 1.77 1.76 1.77 1.76 1.60 1.65 1.72 1.48
2.01 2.13 1.67 1.49 1.28 1.07 1.16 1.35 1.36 1.54 1.52 1.45 1.43 1.58 1.44 1.39 1.69 1.66 1.84 1.87 1.91 1.81 1.77 1.62 1.61 1.42 1.35 1.40 1.54 1.58 1.69 1.62 1.58 1.56 1.65 1.70 1.62 1.63 1.60 1.64 1.71 1.74 1.80 1.87 1.84 1.74 1.73 1.71 1.58
1.87 1.95 1.75 1.29 1.17 1.30 1.37 1.43 1.37 1.39 1.48 1.56 1.49 1.30 1.55 1.74 1.65 1.81 1.82 1.82 1.79 1.72 1.66 1.67 1.62 1.44 1.38 1.53 1.54 1.65 1.60 1.62 1.61 1.60 1.71 1.71 1.77 1.75 1.74 1.80 1.73 1.74 1.80 1.84 1.78 1.72 1.74 1.83 1.82
2.02 1.83 1.33 1.21 1.11 1.35 1.49 1.45 1.46 1.32 1.37 1.40 1.44 1.31 1.38 1.73 1.83 1.78 1.80 1.82 1.68 1.66 1.63 1.66 1.56 1.44 1.52 1.49 1.57 1.62 1.58 1.59 1.62 1.68 1.70 1.79 1.79 1.79 1.74 1.72 1.73 1.75 1.78 1.78 1.74 1.69 1.72 1.88 1.92
1.57 1.78 1.20 1.05 1.16 1.31 1.41 1.50 1.46 1.42 1.43 1.43 1.39 1.32 1.46 1.75 1.68 1.82 1.85 1.74 1.70 1.60 1.55 1.58 1.51 1.43 1.45 1.49 1.58 1.56 1.56 1.57 1.67 1.67 1.64 1.72 1.76 1.75 1.74 1.75 1.74 1.73 1.72 1.71 1.68 1.59 1.59 1.73 1.79
1.30 1.32 1.18 1.20 1.18 1.33 1.32 1.64 1.34 1.37 1.28 1.32 1.48 1.26 1.53 1.58 1.79 1.81 1.81 1.70 1.71 1.56 1.50 1.45 1.41 1.35 1.43 1.54 1.57 1.52 1.51 1.56 1.62 1.65 1.64 1.66 1.68 1.67 1.71 1.70 1.65 1.67 1.68 1.63 1.61 1.57 1.56 1.64 1.71
1.38 1.28 1.07 1.28 1.09 1.15 1.36 1.32 1.45 1.38 1.27 1.55 1.55 1.26 1.32 1.63 1.76 1.80 1.75 1.70 1.66 1.48 1.43 1.36 1.29 1.31 1.46 1.54 1.50 1.49 1.51 1.60 1.65 1.65 1.61 1.62 1.67 1.65 1.58 1.61 1.63 1.62 1.66 1.66 1.63 1.69 1.61 1.51 1.61
1.55 1.08 0.92 1.11 1.20 1.16 1.35 1.38 1.46 1.49 1.30 1.43 1.53 1.49 1.66 1.77 1.76 1.71 1.62 1.66 1.47 1.38 1.32 1.31 1.32 1.27 1.28 1.34 1.41 1.49 1.59 1.63 1.64 1.67 1.71 1.75 1.77 1.73 1.68 1.67 1.65 1.62 1.69 1.82 1.90 1.78 1.70 1.69 1.56
1.28 0.89 0.91 1.24 1.27 1.23 1.27 1.34 1.26 1.30 1.20 1.27 1.41 1.59 1.69 1.69 1.60 1.53 1.51 1.43 1.26 1.23 1.23 1.27 1.35 1.24 1.26 1.29 1.42 1.56 1.59 1.56 1.69 1.86 1.84 1.88 1.79 1.81 1.80 1.67 1.67 1.89 1.89 1.95 1.86 1.89 1.78 1.68 1.65
1.12 0.90 1.11 1.17 1.29 1.30 1.18 1.15 1.24 1.20 1.00 1.14 1.19 1.37 1.52 1.53 1.51 1.48 1.52 1.44 1.25 1.24 1.22 1.24 1.29 1.28 1.29 1.28 1.34 1.50 1.60 1.70 1.91 1.61 1.86 1.84 1.81 1.75 1.86 1.84 1.95 2.03 2.12 1.67 1.84 1.91 1.91 1.98 1.80
0.92 1.16 1.27 1.25 1.29 1.20 1.12 1.12 1.17 1.18 1.19 1.33 1.27 1.44 1.43 1.42 1.43 1.44 1.38 1.36 1.30 1.27 1.18 1.27 1.28 1.34 1.36 1.43 1.37 1.47 1.55 1.67 1.73 1.81 1.83 1.91 1.92 2.05 1.98 2.06 2.12 2.05 2.16 1.91 1.80 1.82 1.83 1.68 1.78
0.87 1.12 1.22 1.30 1.31 1.24 1.27 1.12 1.13 1.26 1.42 1.47 1.22 1.34 1.38 1.38 1.43 1.48 1.44 1.39 1.35 1.25 1.28 1.29 1.31 1.39 1.45 1.50 1.51 1.50 1.55 1.61 1.77 1.72 1.69 2.14 2.09 1.76 1.88 1.81 1.87 2.04 1.88 1.74 1.76 1.76 1.78 1.64 1.61
0.84 1.03 1.12 1.23 1.22 1.17 1.18 1.19 1.21 1.45 1.44 1.32 1.15 1.13 1.35 1.37 1.39 1.39 1.42 1.35 1.31 1.25 1.28 1.36 1.32 1.42 1.61 1.55 1.51 1.59 1.56 1.63 1.74 1.71 1.53 1.78 1.96 1.94 2.02 1.88 1.84 1.78 1.78 1.62 1.61 1.63 1.65 1.64 1.48
0.80 0.80 1.01 1.06 1.18 1.15 1.36 1.07 1.18 1.46 1.48 1.15 0.97 1.06 1.25 1.32 1.42 1.33 1.36 1.32 1.35 1.26 1.36 1.33 1.37 1.41 1.39 1.47 1.51 1.60 1.59 1.55 1.67 1.65 1.62 1.62 1.66 1.77 1.87 1.82 1.81 1.92 1.87 1.81 1.63 1.75 1.71 1.50 1.47
0.69 0.79 0.71 0.90 1.09 1.13 1.28 0.95 1.16 1.30 1.49 1.37 1.19 0.99 1.11 1.22 1.27 1.33 1.37 1.36 1.39 1.33 1.37 1.41 1.41 1.40 1.34 1.35 1.47 1.56 1.58 1.60 1.50 1.56 1.58 1.51 1.51 1.75 1.82 1.98 2.00 2.06 1.86 1.77 1.62 1.65 1.50 1.46 1.55
0.60 0.55 0.60 0.69 1.01 1.04 1.10 1.15 1.22 1.18 1.32 1.39 1.22 1.15 1.08 1.12 1.20 1.32 1.33 1.35 1.34 1.32 1.33 1.33 1.37 1.35 1.34 1.27 1.35 1.47 1.49 1.53 1.52 1.48 1.50 1.54 1.59 1.69 1.71 1.79 1.77 1.82 1.72 1.62 1.51 1.66 1.62 1.55 1.46
0.45 0.51 0.58 0.61 0.82 0.93 1.02 1.13 1.07 1.13 1.26 1.34 1.36 1.41 1.14 1.05 1.09 1.28 1.39 1.45 1.35 1.34 1.34 1.30 1.34 1.32 1.30 1.25 1.28 1.31 1.38 1.48 1.47 1.45 1.47 1.54 1.64 1.63 1.60 1.69 1.71 1.74 1.69 1.56 1.57 1.57 1.61 1.50 1.24
0.54 0.58 0.60 0.64 0.84 0.94 0.92 0.93 1.06 1.25 1.22 1.16 1.23 1.21 1.18 1.07 1.14 1.31 1.38 1.46 1.43 1.38 1.32 1.25 1.24 1.29 1.29 1.28 1.13 1.17 1.15 1.31 1.31 1.36 1.48 1.53 1.61 1.64 1.65 1.66 1.75 1.83 1.64 1.64 1.54 1.51 1.42 1.40 1.17
0.48 0.54 0.56 0.61 0.75 0.81 0.91 0.97 1.04 1.10 1.12 1.18 1.19 1.24 1.07 1.13 1.10 1.25 1.31 1.36 1.37 1.31 1.24 1.21 1.19 1.26 1.27 1.29 1.23 1.21 1.21 1.22 1.23 1.29 1.35 1.48 1.56 1.59 1.59 1.70 1.66 1.79 1.65 1.64 1.65 1.49 1.47 1.35 1.19
0.41 0.45 0.47 0.52 0.60 0.72 0.87 0.88 1.00 1.11 1.19 1.28 1.26 1.15 1.19 1.19 1.09 1.11 1.12 1.15 1.21 1.24 1.20 1.16 1.20 1.20 1.26 1.29 1.29 1.23 1.27 1.23 1.20 1.21 1.17 1.33 1.45 1.45 1.54 1.59 1.63 1.66 1.66 1.54 1.66 1.50 1.45 1.35 1.13
0.34 0.44 0.49 0.54 0.56 0.55 0.71 0.62 0.91 1.03 1.07 1.17 1.40 1.21 1.23 1.28 1.16 1.16 1.10 1.08 1.06 1.15 1.25 1.20 1.21 1.19 1.23 1.28 1.21 1.11 0.97 0.98 1.11 1.14 1.17 1.18 1.37 1.42 1.50 1.52 1.55 1.52 1.57 1.51 1.64 1.58 1.34 1.49 1.09
0.32 0.41 0.44 0.53 0.58 0.65 0.62 0.59 0.74 0.95 0.86 0.97 1.08 1.22 1.17 1.31 1.24 1.13 1.13 0.99 1.04 1.09 1.18 1.22 1.19 1.18 1.22 1.23 1.17 1.10 1.03 1.05 1.10 1.18 1.13 1.18 1.28 1.37 1.45 1.49 1.46 1.44 1.46 1.47 1.65 1.62 1.40 1.47 1.23
0.41 0.39 0.36 0.47 0.53 0.45 0.51 0.60 0.66 0.77 0.75 0.87 1.12 1.22 1.21 1.27 1.24 1.19 1.23 1.18 1.07 1.14 1.18 1.21 1.17 1.14 1.16 1.18 1.16 1.07 1.02 1.01 1.00 0.98 1.03 1.13 1.24 1.33 1.43 1.51 1.44 1.47 1.55 1.39 1.63 1.67 1.51 1.33 1.38
0.41 0.37 0.27 0.30 0.34 0.36 0.49 0.45 0.57 0.72 0.75 0.84 0.97 1.06 1.22 1.27 1.25 1.20 1.20 1.21 1.12 1.02 1.10 1.16 1.18 1.10 1.14 1.10 1.08 1.12 1.05 1.03 0.93 0.93 0.99 1.06 1.16 1.24 1.32 1.42 1.41 1.32 1.37 1.45 1.54 1.58 1.51 1.32 1.33
0.38 0.33 0.23 0.16 0.21 0.27 0.42 0.34 0.39 0.58 0.66 0.78 1.05 1.06 1.21 1.22 1.22 1.20 1.20 1.21 1.15 1.05 0.98 1.04 1.06 1.04 1.10 1.10 1.03 1.04 1.14 1.08 0.99 0.98 0.98 1.04 1.17 1.24 1.34 1.46 1.49 1.45 1.37 1.32 1.44 1.50 1.49 1.42 1.21
0.34 0.28 0.33 0.24 0.24 0.23 0.28 0.33 0.41 0.48 0.54 0.67 0.78 0.99 1.03 1.14 1.16 1.17 1.22 1.21 1.22 1.11 0.99 0.97 1.01 0.99 1.01 0.99 1.01 1.01 0.97 1.07 1.03 0.96 1.04 1.08 1.12 1.26 1.39 1.47 1.50 1.52 1.47 1.36 1.31 1.46 1.48 1.48 1.41
0.33 0.36 0.26 0.23 0.17 0.15 0.20 0.24 0.22 0.31 0.45 0.52 0.66 0.69 0.89 1.06 1.15 1.17 1.19 1.20 1.22 1.19 1.01 1.02 1.00 0.99 0.98 1.01 1.03 0.98 0.94 0.92 1.02 1.07 0.95 0.99 1.08 1.20 1.36 1.45 1.48 1.48 1.45 1.37 1.30 1.31 1.57 1.50 1.44
0.38 0.31 0.29 0.25 0.23 0.19 0.19 0.19 0.32 0.34 0.35 0.47 0.51 0.58 0.79 0.96 1.11 1.16 1.18 1.21 1.20 1.22 1.01 1.06 0.99 1.00 1.04 1.06 1.01 1.03 1.01 0.97 0.96 1.06 1.08 0.99 1.03 1.18 1.38 1.37 1.41 1.41 1.35 1.41 1.36 1.21 1.41 1.46 1.44
0.48 0.34 0.31 0.22 0.18 0.21 0.20 0.20 0.38 0.35 0.40 0.40 0.50 0.53 0.65 0.87 1.11 1.19 1.20 1.16 1.13 1.11 0.95 1.01 1.03 0.99 0.96 0.99 1.07 1.05 1.08 1.11 1.06 1.05 1.10 1.15 1.02 1.04 1.27 1.41 1.40 1.36 1.32 1.39 1.37 1.19 1.23 1.32 1.35

GFSSGP_prec_pwat_060.txt.gz
Precipitable_Water
2.08 2.17 2.23 2.04 1.34 1.33 1.13 1.23 1.49 1.41 1.33 1.49 1.51 1.44 1.34 1.43 1.24 1.02 1.83 1.91 1.92 1.89 1.97 1.92 1.67 1.46 1.42 1.44 1.50 1.59 1.66 1.62 1.67 1.74 1.73 1.82 1.90 1.98 1.95 1.90 1.86 1.87 1.75 1.61 1.56 1.64 1.66 1.53 1.38
2.01 2.11 2.07 1.75 1.22 1.00 1.04 1.39 1.33 1.45 1.54 1.53 1.57 1.54 1.42 1.30 1.61 1.61 1.68 1.88 1.92 1.85 1.88 1.81 1.58 1.44 1.43 1.44 1.55 1.62 1.63 1.60 1.67 1.65 1.62 1.65 1.78 1.82 1.87 1.84 1.81 1.82 1.82 1.72 1.64 1.73 1.69 1.56 1.58
1.98 2.12 1.67 1.47 1.21 1.06 1.09 1.32 1.39 1.50 1.53 1.46 1.43 1.64 1.50 1.41 1.65 1.64 1.79 1.88 1.91 1.80 1.78 1.62 1.47 1.40 1.42 1.45 1.56 1.64 1.56 1.59 1.56 1.60 1.60 1.56 1.58 1.60 1.73 1.81 1.84 1.86 1.88 1.78 1.65 1.64 1.62 1.60 1.60
1.78 1.89 1.80 1.26 1.13 1.27 1.33 1.46 1.51 1.44 1.49 1.58 1.50 1.31 1.54 1.81 1.66 1.76 1.83 1.83 1.79 1.75 1.62 1.46 1.35 1.32 1.39 1.50 1.57 1.60 1.55 1.55 1.58 1.72 1.73 1.74 1.71 1.74 1.80 1.74 1.75 1.82 1.82 1.73 1.68 1.72 1.84 1.76 1.68
1.88 1.77 1.25 1.14 1.20 1.39 1.50 1.67 1.62 1.47 1.42 1.42 1.43 1.27 1.36 1.71 1.83 1.82 1.76 1.79 1.67 1.59 1.57 1.54 1.35 1.33 1.45 1.51 1.59 1.53 1.58 1.60 1.65 1.68 1.75 1.73 1.76 1.72 1.70 1.70 1.75 1.77 1.76 1.68 1.63 1.75 1.85 1.85 1.72
1.59 1.60 1.17 1.05 1.17 1.38 1.43 1.63 1.68 1.52 1.47 1.44 1.35 1.31 1.39 1.77 1.69 1.77 1.77 1.73 1.65 1.47 1.54 1.49 1.35 1.45 1.47 1.52 1.55 1.55 1.59 1.64 1.64 1.66 1.72 1.76 1.75 1.70 1.72 1.75 1.75 1.74 1.71 1.62 1.57 1.67 1.77 1.80 1.75
1.38 1.33 1.15 1.11 1.14 1.29 1.35 1.55 1.40 1.50 1.39 1.30 1.47 1.24 1.46 1.58 1.72 1.77 1.79 1.74 1.57 1.56 1.49 1.42 1.38 1.43 1.45 1.54 1.51 1.52 1.57 1.62 1.61 1.64 1.66 1.67 1.66 1.71 1.67 1.70 1.69 1.64 1.59 1.61 1.60 1.54 1.67 1.76 1.75
1.45 1.34 1.10 1.12 1.12 1.20 1.42 1.50 1.60 1.48 1.35 1.53 1.55 1.18 1.23 1.52 1.76 1.80 1.80 1.65 1.53 1.48 1.39 1.31 1.30 1.31 1.44 1.51 1.48 1.50 1.55 1.59 1.64 1.61 1.58 1.56 1.61 1.61 1.58 1.56 1.61 1.63 1.67 1.67 1.66 1.62 1.53 1.74 1.77
1.60 1.12 0.96 1.04 1.09 1.21 1.52 1.43 1.68 1.64 1.36 1.41 1.50 1.45 1.50 1.75 1.78 1.72 1.60 1.55 1.46 1.38 1.29 1.24 1.17 1.30 1.45 1.46 1.47 1.48 1.56 1.61 1.62 1.63 1.65 1.68 1.63 1.60 1.63 1.66 1.70 1.76 1.84 1.90 1.72 1.65 1.62 1.70 1.69
1.23 1.02 0.97 1.23 1.25 1.22 1.31 1.41 1.43 1.30 1.24 1.28 1.46 1.52 1.62 1.70 1.63 1.53 1.44 1.37 1.30 1.20 1.19 1.14 1.13 1.23 1.33 1.35 1.44 1.50 1.57 1.64 1.75 1.75 1.90 1.75 1.73 1.67 1.67 1.76 1.90 1.96 1.92 1.91 1.83 1.85 1.76 1.66 1.71
1.13 0.99 1.08 1.20 1.28 1.31 1.28 1.32 1.43 1.26 1.06 1.21 1.26 1.36 1.51 1.55 1.53 1.47 1.47 1.40 1.20 1.15 1.14 1.13 1.11 1.14 1.15 1.23 1.45 1.48 1.52 1.73 1.79 1.81 1.76 1.76 1.72 1.80 1.86 1.88 2.00 1.98 1.85 1.69 1.84 1.73 1.73 1.71 1.80
0.85 1.11 1.15 1.26 1.33 1.29 1.21 1.34 1.31 1.33 1.12 1.33 1.33 1.44 1.47 1.43 1.43 1.45 1.46 1.33 1.19 1.11 1.09 1.14 1.18 1.11 1.14 1.27 1.41 1.42 1.55 1.80 1.61 1.91 2.00 1.91 1.91 1.93 2.01 1.92 1.98 1.96 1.83 1.69 1.72 1.67 1.63 1.67 1.74
0.82 1.03 1.17 1.31 1.29 1.27 1.31 1.21 1.35 1.31 1.36 1.45 1.33 1.37 1.35 1.36 1.42 1.50 1.54 1.37 1.28 1.13 1.09 1.09 1.15 1.16 1.17 1.29 1.29 1.47 1.56 1.67 1.71 1.85 1.97 2.05 1.81 1.79 1.86 1.78 1.76 1.74 1.69 1.66 1.67 1.69 1.72 1.67 1.66
0.79 1.00 1.15 1.27 1.26 1.28 1.24 1.23 1.34 1.37 1.43 1.29 1.18 1.17 1.32 1.30 1.38 1.44 1.49 1.36 1.24 1.21 1.12 1.11 1.16 1.24 1.32 1.43 1.42 1.54 1.60 1.65 1.71 1.77 1.78 1.86 1.77 1.88 1.88 1.79 1.72 1.79 1.65 1.57 1.59 1.62 1.68 1.67 1.67
0.75 0.78 0.88 1.12 1.19 1.24 1.24 1.10 1.22 1.54 1.52 1.13 1.00 1.06 1.28 1.35 1.41 1.36 1.37 1.33 1.26 1.27 1.26 1.21 1.21 1.32 1.32 1.42 1.46 1.52 1.57 1.56 1.59 1.64 1.64 1.70 1.72 1.85 1.90 1.91 1.89 1.78 1.73 1.64 1.68 1.71 1.64 1.57 1.62
0.62 0.66 0.59 0.83 1.07 1.25 1.26 0.92 1.30 1.51 1.42 1.33 1.24 0.95 1.14 1.26 1.35 1.39 1.40 1.35 1.33 1.31 1.26 1.32 1.32 1.35 1.45 1.45 1.43 1.55 1.55 1.52 1.58 1.62 1.62 1.64 1.67 1.78 1.86 1.86 1.87 1.88 1.73 1.67 1.67 1.59 1.50 1.38 1.43
0.53 0.44 0.52 0.65 0.92 1.10 1.16 1.04 1.23 1.54 1.47 1.39 1.34 1.08 0.99 1.13 1.26 1.34 1.36 1.39 1.33 1.28 1.24 1.28 1.34 1.41 1.42 1.41 1.39 1.49 1.54 1.53 1.49 1.56 1.61 1.59 1.64 1.65 1.71 1.77 1.76 1.82 1.65 1.56 1.64 1.59 1.49 1.33 1.37
0.40 0.45 0.56 0.61 0.78 1.00 1.06 1.06 1.22 1.34 1.38 1.39 1.38 1.29 1.03 1.00 1.10 1.25 1.31 1.40 1.37 1.36 1.33 1.32 1.35 1.43 1.43 1.40 1.31 1.39 1.44 1.46 1.52 1.51 1.53 1.57 1.62 1.68 1.62 1.71 1.66 1.76 1.63 1.55 1.63 1.56 1.60 1.46 1.29
0.47 0.48 0.51 0.65 0.88 0.91 0.96 1.01 1.07 1.22 1.22 1.28 1.36 1.34 1.25 0.87 1.03 1.22 1.22 1.34 1.32 1.32 1.32 1.29 1.28 1.35 1.38 1.31 1.21 1.18 1.24 1.35 1.41 1.44 1.50 1.54 1.57 1.63 1.63 1.55 1.59 1.72 1.68 1.63 1.57 1.53 1.40 1.34 1.28
0.44 0.44 0.47 0.59 0.73 0.84 0.96 1.01 1.09 1.15 1.12 1.27 1.37 1.33 1.29 1.06 0.95 1.11 1.17 1.28 1.22 1.25 1.28 1.29 1.26 1.30 1.32 1.30 1.18 1.16 1.22 1.27 1.30 1.38 1.45 1.49 1.52 1.57 1.60 1.56 1.63 1.80 1.62 1.60 1.59 1.50 1.38 1.32 1.17
0.39 0.40 0.43 0.49 0.70 0.81 0.88 0.92 1.03 1.16 1.16 1.29 1.40 1.37 1.35 1.20 1.08 1.04 1.11 1.18 1.25 1.23 1.23 1.23 1.28 1.29 1.31 1.29 1.25 1.17 1.16 1.14 1.18 1.25 1.27 1.36 1.47 1.56 1.56 1.55 1.57 1.65 1.66 1.58 1.69 1.48 1.45 1.14 1.16
0.28 0.44 0.50 0.56 0.58 0.53 0.78 0.55 0.88 1.00 1.05 1.13 1.22 1.24 1.26 1.28 1.21 1.16 1.08 1.13 1.19 1.21 1.29 1.27 1.27 1.29 1.29 1.32 1.19 1.11 0.94 0.91 1.02 1.08 1.17 1.25 1.39 1.51 1.54 1.51 1.52 1.54 1.59 1.55 1.65 1.57 1.47 1.40 1.02
0.30 0.45 0.49 0.58 0.55 0.56 0.65 0.67 0.69 0.95 0.88 1.00 1.03 1.12 1.16 1.26 1.23 1.17 1.13 1.09 1.12 1.22 1.27 1.30 1.26 1.25 1.25 1.27 1.20 1.12 1.04 1.01 1.08 1.09 1.13 1.17 1.25 1.42 1.47 1.50 1.44 1.42 1.43 1.48 1.59 1.60 1.38 1.51 1.25
0.46 0.41 0.47 0.54 0.50 0.39 0.50 0.61 0.58 0.73 0.80 0.87 0.95 0.99 1.10 1.21 1.28 1.24 1.19 1.25 1.17 1.24 1.26 1.30 1.26 1.19 1.20 1.21 1.17 1.11 1.05 1.03 1.01 1.04 1.05 1.09 1.17 1.25 1.38 1.45 1.44 1.35 1.36 1.40 1.53 1.63 1.47 1.45 1.41
0.49 0.38 0.28 0.29 0.36 0.33 0.46 0.51 0.56 0.72 0.87 0.89 0.86 0.95 1.11 1.21 1.25 1.24 1.16 1.16 1.23 1.14 1.18 1.20 1.24 1.18 1.19 1.15 1.12 1.09 1.09 1.09 0.99 0.98 0.98 1.03 1.07 1.14 1.21 1.35 1.39 1.38 1.37 1.50 1.47 1.51 1.53 1.46 1.33
0.43 0.39 0.26 0.18 0.24 0.29 0.39 0.38 0.43 0.63 0.86 0.94 0.91 0.95 1.07 1.15 1.19 1.24 1.24 1.22 1.22 1.20 1.12 1.10 1.09 1.11 1.15 1.13 1.09 1.11 1.11 1.10 1.07 1.00 1.00 0.99 1.04 1.14 1.25 1.35 1.47 1.45 1.44 1.38 1.45 1.45 1.46 1.48 1.39
0.44 0.36 0.38 0.30 0.28 0.26 0.32 0.40 0.48 0.56 0.59 0.70 0.69 0.87 1.02 1.08 1.13 1.20 1.26 1.28 1.27 1.25 1.19 1.02 1.01 1.04 1.10 1.08 1.08 1.05 1.09 1.07 1.00 0.99 1.01 1.00 1.08 1.14 1.25 1.32 1.39 1.49 1.53 1.50 1.49 1.42 1.36 1.42 1.40
0.50 0.51 0.36 0.34 0.23 0.20 0.25 0.28 0.30 0.47 0.51 0.52 0.55 0.79 0.95 1.05 1.11 1.21 1.25 1.29 1.32 1.29 1.28 1.10 1.01 0.97 1.00 1.07 1.07 1.04 1.03 1.06 1.04 1.01 0.96 0.99 1.02 1.12 1.18 1.27 1.33 1.43 1.49 1.56 1.50 1.43 1.43 1.39 1.40
0.49 0.46 0.41 0.37 0.30 0.22 0.19 0.20 0.29 0.37 0.50 0.52 0.57 0.72 0.99 1.01 1.03 1.19 1.23 1.27 1.35 1.37 1.34 1.18 1.06 1.00 0.99 1.04 1.08 1.06 1.01 0.97 1.00 1.02 0.99 0.98 1.03 1.08 1.11 1.14 1.30 1.40 1.47 1.50 1.46 1.39 1.39 1.35 1.40
0.53 0.50 0.46 0.30 0.25 0.26 0.21 0.15 0.28 0.33 0.37 0.42 0.45 0.60 0.79 0.91 0.95 1.15 1.22 1.24 1.33 1.33 1.28 1.20 1.08 1.08 0.99 0.97 1.02 1.02 1.02 1.03 0.97 0.93 1.02 1.08 1.03 1.05 1.07 1.19 1.28 1.34 1.40 1.44 1.39 1.30 1.29 1.26 1.28

GFSSGP_prec_pwat_063.txt.gz
Precipitable_Water
2.13 2.22 2.25 2.06 1.36 1.32 1.13 1.26 1.51 1.36 1.35 1.48 1.51 1.39 1.36 1.46 1.25 1.04 1.88 1.96 1.97 1.81 1.79 1.65 1.44 1.47 1.43 1.47 1.57 1.62 1.60 1.62 1.70 1.78 1.87 1.96 1.98 1.95 1.91 1.89 1.82 1.67 1.53 1.62 1.70 1.69 1.50 1.40 1.51
2.08 2.12 2.08 1.77 1.21 0.98 1.06 1.30 1.32 1.40 1.51 1.54 1.55 1.55 1.44 1.31 1.62 1.64 1.70 1.92 1.93 1.80 1.70 1.56 1.41 1.42 1.48 1.56 1.64 1.66 1.64 1.72 1.73 1.69 1.86 1.90 1.90 1.92 1.91 1.84 1.87 1.78 1.69 1.71 1.76 1.71 1.59 1.54 1.43
2.04 2.14 1.68 1.47 1.21 1.02 1.03 1.33 1.40 1.50 1.58 1.49 1.53 1.70 1.54 1.39 1.63 1.67 1.85 1.87 1.86 1.79 1.71 1.53 1.40 1.45 1.51 1.57 1.67 1.59 1.61 1.58 1.56 1.52 1.50 1.53 1.72 1.82 1.82 1.80 1.81 1.79 1.66 1.64 1.70 1.65 1.66 1.71 1.73
1.84 1.83 1.79 1.27 1.15 1.28 1.31 1.43 1.51 1.44 1.59 1.65 1.59 1.38 1.62 1.79 1.61 1.75 1.85 1.84 1.73 1.71 1.66 1.53 1.43 1.48 1.51 1.59 1.63 1.57 1.54 1.56 1.70 1.63 1.64 1.66 1.68 1.72 1.69 1.72 1.77 1.72 1.63 1.61 1.77 1.81 1.78 1.74 1.79
1.97 1.69 1.17 1.12 1.17 1.35 1.49 1.55 1.59 1.46 1.50 1.51 1.50 1.28 1.38 1.73 1.81 1.81 1.80 1.80 1.64 1.62 1.54 1.46 1.43 1.47 1.52 1.59 1.59 1.55 1.57 1.63 1.72 1.71 1.73 1.73 1.78 1.71 1.67 1.70 1.68 1.63 1.57 1.62 1.80 1.90 1.77 1.70 1.71
1.52 1.52 1.09 1.02 1.14 1.36 1.57 1.58 1.56 1.48 1.54 1.47 1.36 1.31 1.42 1.79 1.72 1.77 1.80 1.74 1.66 1.44 1.37 1.35 1.39 1.47 1.55 1.61 1.56 1.60 1.61 1.64 1.69 1.74 1.74 1.78 1.67 1.70 1.71 1.69 1.66 1.60 1.52 1.56 1.69 1.85 1.80 1.69 1.67
1.43 1.28 1.12 1.16 1.15 1.22 1.39 1.61 1.48 1.51 1.43 1.34 1.46 1.23 1.47 1.61 1.76 1.78 1.76 1.74 1.60 1.51 1.39 1.31 1.41 1.54 1.54 1.59 1.55 1.61 1.60 1.59 1.65 1.69 1.69 1.72 1.70 1.69 1.68 1.63 1.59 1.58 1.65 1.56 1.59 1.72 1.83 1.79 1.72
1.48 1.36 1.08 1.11 1.07 1.13 1.41 1.44 1.52 1.52 1.41 1.64 1.55 1.21 1.24 1.55 1.75 1.76 1.73 1.63 1.46 1.45 1.40 1.28 1.46 1.48 1.51 1.51 1.51 1.56 1.55 1.55 1.60 1.60 1.59 1.64 1.59 1.56 1.60 1.60 1.71 1.81 1.73 1.65 1.64 1.68 1.74 1.71 1.76
1.58 1.18 0.97 0.99 1.06 1.20 1.45 1.40 1.57 1.69 1.46 1.48 1.49 1.46 1.53 1.68 1.73 1.65 1.55 1.47 1.38 1.40 1.35 1.31 1.35 1.38 1.45 1.43 1.47 1.50 1.55 1.57 1.56 1.57 1.55 1.57 1.57 1.65 1.71 1.78 1.87 1.87 1.90 1.74 1.68 1.61 1.65 1.68 1.80
1.20 0.95 1.01 1.24 1.24 1.20 1.40 1.39 1.41 1.35 1.22 1.25 1.36 1.55 1.60 1.65 1.63 1.49 1.39 1.22 1.26 1.24 1.24 1.23 1.25 1.28 1.37 1.38 1.44 1.50 1.61 1.57 1.62 1.66 1.66 1.65 1.68 1.73 1.81 1.94 1.95 1.95 1.93 1.95 1.93 1.75 1.65 1.63 1.60
1.11 0.87 1.13 1.20 1.28 1.29 1.23 1.28 1.43 1.30 1.09 1.24 1.24 1.37 1.52 1.54 1.54 1.46 1.38 1.24 1.19 1.21 1.17 1.12 1.16 1.30 1.30 1.28 1.41 1.51 1.57 1.65 1.71 1.78 1.69 1.71 1.77 1.83 1.84 1.93 1.86 1.85 1.83 1.68 1.71 1.66 1.68 1.74 1.67
0.81 1.12 1.22 1.23 1.29 1.29 1.22 1.35 1.25 1.32 1.23 1.30 1.38 1.44 1.49 1.41 1.43 1.40 1.33 1.25 1.19 1.15 1.08 1.05 1.13 1.20 1.20 1.29 1.42 1.44 1.61 1.73 1.73 1.77 1.77 1.76 1.88 1.97 1.87 1.91 1.84 1.79 1.71 1.67 1.68 1.67 1.71 1.67 1.67
0.76 1.02 1.18 1.23 1.26 1.33 1.35 1.20 1.20 1.30 1.42 1.42 1.31 1.41 1.39 1.39 1.42 1.49 1.44 1.37 1.23 1.08 1.06 0.99 1.06 1.06 1.09 1.26 1.39 1.43 1.63 1.56 1.84 1.98 1.89 1.94 1.89 1.87 1.84 1.79 1.73 1.69 1.63 1.67 1.70 1.67 1.73 1.70 1.54
0.77 1.03 1.08 1.13 1.19 1.24 1.22 1.26 1.26 1.34 1.42 1.31 1.17 1.22 1.31 1.36 1.38 1.43 1.38 1.32 1.19 1.08 1.04 1.02 1.06 1.04 1.12 1.23 1.35 1.46 1.62 1.67 1.82 1.87 1.89 1.86 1.89 1.91 1.81 1.75 1.70 1.71 1.66 1.66 1.70 1.75 1.82 1.66 1.57
0.69 0.80 0.88 0.91 1.13 1.24 1.33 1.15 1.18 1.44 1.43 1.31 1.11 1.07 1.27 1.34 1.40 1.36 1.37 1.31 1.17 1.10 1.05 0.99 1.05 1.07 1.15 1.24 1.34 1.46 1.58 1.65 1.61 1.69 1.79 1.83 1.81 1.88 1.87 1.85 1.75 1.70 1.74 1.67 1.65 1.79 1.70 1.55 1.55
0.51 0.70 0.64 0.82 1.01 1.19 1.14 0.91 1.26 1.49 1.44 1.32 1.24 1.05 1.16 1.30 1.37 1.40 1.40 1.33 1.24 1.17 1.08 1.03 1.07 1.10 1.22 1.37 1.42 1.45 1.54 1.58 1.53 1.57 1.65 1.73 1.74 1.73 1.76 1.74 1.80 1.71 1.68 1.66 1.58 1.53 1.41 1.43 1.41
0.42 0.45 0.60 0.72 0.92 1.05 1.03 0.95 1.28 1.51 1.42 1.36 1.32 1.16 1.12 1.20 1.34 1.39 1.42 1.41 1.30 1.21 1.20 1.06 1.08 1.17 1.21 1.34 1.41 1.46 1.57 1.49 1.51 1.57 1.63 1.65 1.61 1.65 1.68 1.73 1.77 1.77 1.69 1.63 1.55 1.46 1.42 1.34 1.43
0.30 0.38 0.57 0.63 0.74 0.90 0.88 0.99 1.21 1.38 1.36 1.36 1.39 1.32 1.10 1.07 1.19 1.33 1.40 1.44 1.36 1.28 1.29 1.22 1.18 1.24 1.30 1.42 1.39 1.43 1.54 1.52 1.51 1.53 1.59 1.60 1.62 1.67 1.58 1.62 1.67 1.73 1.63 1.57 1.59 1.51 1.50 1.44 1.25
0.36 0.42 0.52 0.66 0.72 0.71 0.80 0.92 1.11 1.28 1.29 1.33 1.37 1.38 1.26 1.10 1.19 1.33 1.38 1.42 1.36 1.30 1.29 1.24 1.23 1.27 1.37 1.39 1.32 1.30 1.29 1.42 1.45 1.47 1.52 1.54 1.60 1.64 1.62 1.48 1.61 1.67 1.60 1.54 1.58 1.55 1.44 1.31 1.20
0.30 0.37 0.44 0.62 0.72 0.81 0.83 0.85 1.09 1.20 1.20 1.28 1.34 1.37 1.33 1.17 1.12 1.18 1.27 1.33 1.31 1.27 1.24 1.22 1.18 1.25 1.32 1.37 1.35 1.31 1.25 1.37 1.43 1.46 1.46 1.51 1.50 1.57 1.59 1.57 1.65 1.63 1.65 1.66 1.55 1.52 1.36 1.30 1.19
0.25 0.30 0.45 0.54 0.71 0.85 0.80 0.82 0.97 1.13 1.29 1.36 1.45 1.45 1.42 1.28 0.99 0.99 1.11 1.18 1.24 1.25 1.20 1.18 1.18 1.22 1.30 1.34 1.36 1.38 1.33 1.29 1.28 1.32 1.35 1.39 1.45 1.50 1.57 1.55 1.55 1.65 1.64 1.60 1.61 1.49 1.36 1.22 1.13
0.18 0.35 0.48 0.53 0.55 0.45 0.70 0.48 0.81 0.98 1.02 1.16 1.27 1.37 1.36 1.37 1.21 1.06 1.00 1.08 1.12 1.17 1.22 1.24 1.22 1.23 1.27 1.32 1.29 1.22 1.04 0.95 1.10 1.21 1.29 1.31 1.39 1.40 1.48 1.50 1.52 1.55 1.64 1.62 1.66 1.62 1.46 1.28 1.10
0.23 0.38 0.45 0.54 0.55 0.54 0.61 0.54 0.65 0.86 0.83 0.99 1.12 1.24 1.32 1.39 1.34 1.15 1.03 1.00 1.09 1.20 1.19 1.21 1.26 1.26 1.29 1.32 1.30 1.21 1.07 0.99 1.06 1.15 1.17 1.26 1.29 1.33 1.38 1.41 1.45 1.47 1.55 1.59 1.55 1.60 1.43 1.43 1.15
0.40 0.36 0.44 0.51 0.53 0.43 0.49 0.52 0.48 0.64 0.75 0.89 1.07 1.16 1.22 1.33 1.38 1.27 1.21 1.16 1.10 1.22 1.25 1.24 1.23 1.23 1.29 1.33 1.32 1.22 1.09 1.03 1.00 1.00 1.02 1.12 1.16 1.22 1.28 1.37 1.43 1.45 1.46 1.55 1.51 1.57 1.52 1.34 1.39
0.46 0.41 0.26 0.31 0.36 0.34 0.50 0.46 0.41 0.61 0.76 0.89 0.98 1.00 1.14 1.26 1.31 1.30 1.17 1.15 1.11 1.14 1.18 1.23 1.21 1.22 1.26 1.29 1.30 1.26 1.14 1.09 1.06 1.03 1.00 1.01 1.10 1.11 1.14 1.32 1.38 1.41 1.49 1.52 1.54 1.50 1.54 1.39 1.37
0.43 0.43 0.30 0.21 0.25 0.34 0.45 0.37 0.35 0.55 0.79 0.92 1.00 1.05 1.12 1.21 1.26 1.26 1.19 1.14 1.17 1.14 1.15 1.16 1.18 1.18 1.25 1.25 1.25 1.27 1.23 1.14 1.10 1.11 1.06 1.02 1.09 1.13 1.19 1.24 1.37 1.40 1.44 1.54 1.56 1.51 1.42 1.53 1.46
0.42 0.38 0.45 0.32 0.32 0.29 0.36 0.43 0.44 0.56 0.67 0.81 0.86 0.97 1.05 1.08 1.17 1.20 1.26 1.18 1.18 1.19 1.15 1.09 1.15 1.20 1.18 1.17 1.23 1.22 1.21 1.15 1.08 1.06 1.08 1.01 1.08 1.14 1.21 1.24 1.29 1.37 1.45 1.48 1.52 1.46 1.38 1.44 1.45
0.44 0.52 0.39 0.36 0.24 0.21 0.27 0.32 0.30 0.43 0.56 0.66 0.77 0.90 0.90 0.95 1.07 1.19 1.23 1.23 1.17 1.23 1.26 1.20 1.14 1.15 1.16 1.19 1.20 1.19 1.16 1.14 1.12 1.06 0.99 1.00 1.03 1.07 1.11 1.18 1.27 1.36 1.44 1.50 1.52 1.54 1.52 1.38 1.36
0.43 0.42 0.45 0.44 0.34 0.24 0.20 0.26 0.35 0.38 0.54 0.60 0.67 0.70 0.75 0.80 0.93 1.08 1.18 1.26 1.24 1.29 1.27 1.27 1.18 1.13 1.17 1.20 1.20 1.19 1.14 1.14 1.13 1.03 0.99 1.00 0.99 1.01 1.04 1.13 1.22 1.32 1.35 1.43 1.44 1.47 1.52 1.44 1.34
0.52 0.45 0.47 0.36 0.31 0.32 0.27 0.21 0.36 0.35 0.44 0.52 0.65 0.61 0.64 0.77 0.99 1.00 1.11 1.23 1.26 1.24 1.27 1.22 1.20 1.14 1.13 1.16 1.15 1.14 1.14 1.13 1.09 1.04 0.99 1.00 0.95 1.00 1.03 1.07 1.14 1.21 1.30 1.41 1.38 1.34 1.35 1.38 1.33

GFSSGP_prec_pwat_069.txt.gz
Precipitable_Water
2.13 2.25 2.29 2.02 1.33 1.28 1.11 1.24 1.47 1.32 1.27 1.43 1.50 1.40 1.32 1.41 1.23 1.06 1.87 1.98 1.99 1.96 1.99 1.77 1.61 1.47 1.51 1.53 1.61 1.71 1.73 1.78 1.84 1.93 1.96 1.94 1.93 1.90 1.82 1.73 1.59 1.64 1.73 1.73 1.49 1.47 1.52 1.57 1.42
2.12 2.11 2.09 1.82 1.16 0.98 1.03 1.31 1.34 1.43 1.45 1.49 1.52 1.48 1.39 1.27 1.59 1.65 1.72 1.96 1.93 1.88 1.82 1.60 1.48 1.48 1.52 1.64 1.66 1.69 1.75 1.82 1.87 1.95 1.91 1.89 1.89 1.99 1.82 1.68 1.62 1.70 1.73 1.66 1.55 1.43 1.44 1.48 1.45
2.02 2.11 1.65 1.48 1.23 1.00 1.02 1.30 1.43 1.54 1.56 1.49 1.44 1.64 1.50 1.39 1.66 1.70 1.84 1.93 1.85 1.75 1.58 1.55 1.40 1.52 1.61 1.63 1.68 1.81 1.79 1.83 1.92 1.91 2.02 1.89 1.99 1.95 1.98 1.67 1.64 1.71 1.79 1.70 1.74 1.69 1.52 1.63 1.71
1.73 1.80 1.72 1.26 1.11 1.24 1.28 1.42 1.54 1.46 1.55 1.60 1.53 1.35 1.63 1.80 1.69 1.79 1.86 1.85 1.71 1.49 1.48 1.46 1.46 1.58 1.67 1.62 1.76 1.69 1.57 1.53 1.59 1.67 1.93 1.89 1.87 1.88 1.75 1.67 1.62 1.79 1.90 1.86 1.83 1.79 1.82 1.80 1.90
1.89 1.63 1.18 1.08 1.14 1.31 1.45 1.55 1.56 1.43 1.50 1.52 1.52 1.34 1.43 1.73 1.87 1.84 1.78 1.72 1.52 1.37 1.37 1.44 1.50 1.57 1.60 1.63 1.56 1.56 1.67 1.58 1.62 1.65 1.69 1.70 1.72 1.77 1.75 1.69 1.68 1.93 1.97 1.91 1.82 1.76 1.81 1.85 1.80
1.46 1.48 1.05 0.96 1.12 1.34 1.49 1.62 1.56 1.51 1.53 1.51 1.44 1.37 1.44 1.79 1.78 1.80 1.76 1.58 1.50 1.31 1.32 1.42 1.49 1.61 1.59 1.57 1.54 1.69 1.80 1.80 1.76 1.76 1.82 1.74 1.72 1.74 1.73 1.67 1.68 1.81 1.90 1.88 1.77 1.68 1.77 1.79 1.78
1.28 1.21 1.04 1.08 1.12 1.23 1.36 1.63 1.49 1.44 1.43 1.43 1.56 1.28 1.48 1.65 1.79 1.82 1.72 1.57 1.44 1.35 1.32 1.42 1.46 1.60 1.64 1.57 1.57 1.66 1.68 1.82 1.80 1.72 1.68 1.80 1.78 1.73 1.77 1.73 1.74 1.68 1.74 1.87 1.84 1.67 1.72 1.78 1.77
1.39 1.37 1.08 1.13 1.10 1.15 1.44 1.51 1.64 1.49 1.43 1.68 1.62 1.23 1.24 1.60 1.82 1.79 1.71 1.55 1.42 1.34 1.33 1.40 1.45 1.56 1.64 1.68 1.58 1.66 1.78 1.72 1.80 1.77 1.75 1.77 1.76 1.78 1.83 1.91 1.84 1.71 1.75 1.82 1.79 1.71 1.69 1.69 1.69
1.55 1.20 1.01 1.03 1.12 1.22 1.47 1.44 1.61 1.66 1.42 1.50 1.53 1.49 1.52 1.70 1.80 1.66 1.56 1.48 1.40 1.32 1.29 1.37 1.41 1.52 1.58 1.67 1.60 1.62 1.67 1.64 1.68 1.65 1.70 1.77 1.86 1.92 1.92 1.96 1.95 1.91 1.85 1.70 1.70 1.72 1.81 1.81 1.72
1.14 1.10 1.06 1.25 1.31 1.26 1.40 1.42 1.42 1.33 1.30 1.34 1.43 1.55 1.62 1.65 1.65 1.47 1.36 1.25 1.19 1.13 1.17 1.30 1.41 1.45 1.50 1.57 1.62 1.62 1.65 1.62 1.67 1.67 1.71 1.71 1.80 1.89 1.97 2.03 2.04 2.01 1.94 1.80 1.73 1.68 1.66 1.76 1.82
1.01 0.97 1.26 1.29 1.35 1.39 1.39 1.37 1.41 1.28 1.17 1.32 1.29 1.42 1.53 1.54 1.53 1.40 1.33 1.25 1.08 1.09 1.10 1.26 1.40 1.45 1.45 1.49 1.56 1.61 1.61 1.59 1.59 1.68 1.72 1.77 1.82 1.86 1.84 1.86 1.92 1.85 1.74 1.71 1.72 1.68 1.68 1.65 1.69
0.81 0.99 1.25 1.30 1.37 1.34 1.28 1.39 1.25 1.25 1.27 1.46 1.48 1.52 1.51 1.48 1.44 1.35 1.26 1.20 1.10 1.09 1.08 1.27 1.37 1.39 1.43 1.48 1.51 1.54 1.54 1.63 1.62 1.67 1.73 1.75 1.72 1.82 1.80 1.79 1.77 1.78 1.76 1.71 1.72 1.74 1.75 1.66 1.61
0.73 0.87 1.00 1.20 1.30 1.28 1.32 1.24 1.25 1.23 1.42 1.52 1.48 1.51 1.48 1.46 1.44 1.42 1.34 1.24 1.14 1.08 1.07 1.19 1.29 1.32 1.37 1.41 1.51 1.50 1.61 1.74 1.65 1.68 1.80 1.91 1.87 1.80 1.87 1.86 1.78 1.77 1.82 1.80 1.81 1.81 1.74 1.66 1.58
0.61 0.62 0.92 1.08 1.10 1.16 1.09 1.19 1.32 1.29 1.39 1.39 1.40 1.36 1.43 1.42 1.41 1.40 1.33 1.17 1.07 1.09 1.04 1.14 1.20 1.27 1.35 1.38 1.46 1.52 1.65 1.77 1.74 1.80 1.89 1.86 1.88 1.83 1.81 1.81 1.78 1.80 1.84 1.82 1.80 1.79 1.79 1.68 1.63
0.47 0.53 0.69 0.88 1.01 1.02 1.14 1.11 1.14 1.31 1.36 1.23 1.30 1.27 1.37 1.35 1.43 1.39 1.37 1.20 1.12 1.11 1.06 1.05 1.12 1.22 1.27 1.37 1.44 1.55 1.63 1.79 1.80 1.81 1.90 1.91 1.95 1.92 1.89 1.90 1.81 1.76 1.76 1.79 1.72 1.75 1.73 1.60 1.56
0.26 0.44 0.56 0.79 0.95 0.98 1.06 0.87 1.22 1.34 1.25 1.18 1.21 1.15 1.27 1.31 1.38 1.45 1.43 1.29 1.23 1.13 1.02 1.02 1.07 1.14 1.21 1.37 1.42 1.49 1.57 1.72 1.77 1.80 1.80 1.86 1.86 1.90 1.88 1.83 1.78 1.78 1.76 1.73 1.65 1.58 1.50 1.49 1.43
0.23 0.23 0.42 0.65 0.87 0.94 0.99 0.92 1.23 1.35 1.29 1.17 1.16 1.07 1.19 1.26 1.35 1.44 1.45 1.34 1.26 1.17 1.04 0.96 0.98 1.03 1.09 1.30 1.39 1.46 1.54 1.58 1.63 1.67 1.65 1.73 1.78 1.82 1.82 1.79 1.81 1.81 1.71 1.59 1.51 1.44 1.43 1.36 1.33
0.12 0.19 0.37 0.52 0.72 0.85 0.94 1.01 1.20 1.27 1.31 1.30 1.27 1.15 1.03 1.18 1.27 1.41 1.45 1.41 1.35 1.23 1.12 1.02 0.97 1.00 1.08 1.22 1.39 1.42 1.45 1.52 1.56 1.55 1.55 1.63 1.68 1.74 1.83 1.76 1.75 1.82 1.62 1.60 1.60 1.47 1.45 1.34 1.25
0.18 0.22 0.29 0.56 0.74 0.75 0.85 0.98 1.11 1.25 1.26 1.31 1.39 1.33 1.15 1.05 1.31 1.44 1.45 1.44 1.38 1.33 1.14 1.04 0.96 0.97 1.06 1.10 1.16 1.26 1.30 1.42 1.48 1.48 1.54 1.60 1.62 1.70 1.69 1.67 1.75 1.75 1.61 1.59 1.63 1.51 1.36 1.21 1.24
0.17 0.20 0.28 0.49 0.70 0.71 0.77 0.81 1.02 1.13 1.16 1.30 1.34 1.37 1.29 1.20 1.15 1.31 1.38 1.41 1.35 1.34 1.22 1.07 1.02 0.99 1.03 1.14 1.20 1.32 1.35 1.41 1.48 1.48 1.53 1.56 1.61 1.66 1.68 1.66 1.64 1.69 1.72 1.60 1.55 1.47 1.31 1.26 1.18
0.16 0.14 0.23 0.35 0.59 0.64 0.75 0.75 0.85 1.04 1.19 1.32 1.37 1.43 1.46 1.38 1.28 1.16 1.28 1.32 1.35 1.29 1.26 1.08 1.05 1.02 1.03 1.12 1.25 1.31 1.38 1.38 1.38 1.39 1.39 1.46 1.54 1.57 1.63 1.68 1.67 1.66 1.71 1.64 1.62 1.48 1.33 1.14 1.16
0.15 0.18 0.21 0.31 0.40 0.44 0.73 0.54 0.77 0.88 1.00 1.17 1.23 1.31 1.37 1.41 1.45 1.22 1.19 1.27 1.30 1.29 1.36 1.23 1.14 1.13 1.07 1.13 1.13 1.16 1.19 1.12 1.22 1.34 1.42 1.43 1.48 1.46 1.51 1.56 1.61 1.64 1.67 1.67 1.57 1.58 1.40 1.28 1.11
0.19 0.21 0.15 0.23 0.35 0.44 0.51 0.54 0.65 0.81 0.83 1.02 1.14 1.27 1.35 1.43 1.45 1.31 1.03 1.13 1.26 1.34 1.33 1.33 1.27 1.23 1.18 1.15 1.20 1.24 1.27 1.28 1.30 1.31 1.31 1.35 1.38 1.41 1.42 1.47 1.53 1.61 1.64 1.63 1.58 1.54 1.50 1.40 1.29
0.29 0.28 0.21 0.17 0.22 0.27 0.40 0.44 0.46 0.57 0.62 0.85 1.09 1.22 1.32 1.39 1.44 1.38 1.30 1.14 1.19 1.36 1.38 1.40 1.34 1.24 1.30 1.26 1.23 1.24 1.23 1.25 1.23 1.24 1.20 1.23 1.26 1.30 1.33 1.36 1.40 1.48 1.55 1.57 1.55 1.61 1.56 1.50 1.38
0.39 0.28 0.22 0.16 0.13 0.16 0.35 0.40 0.41 0.55 0.67 0.80 0.93 1.13 1.26 1.35 1.40 1.36 1.31 1.19 1.07 1.15 1.31 1.35 1.36 1.26 1.27 1.24 1.23 1.24 1.24 1.25 1.20 1.22 1.20 1.14 1.10 1.12 1.18 1.23 1.27 1.33 1.46 1.52 1.56 1.54 1.52 1.51 1.47
0.39 0.37 0.21 0.15 0.14 0.13 0.30 0.29 0.38 0.56 0.64 0.77 0.92 1.04 1.11 1.24 1.30 1.36 1.32 1.21 1.15 1.08 1.08 1.27 1.31 1.30 1.30 1.25 1.20 1.24 1.26 1.22 1.21 1.23 1.23 1.17 1.11 1.05 1.11 1.15 1.20 1.26 1.37 1.49 1.55 1.53 1.53 1.55 1.52
0.40 0.36 0.39 0.29 0.28 0.17 0.21 0.30 0.38 0.51 0.55 0.69 0.80 0.93 0.98 1.10 1.24 1.30 1.30 1.22 1.15 1.15 1.11 1.08 1.20 1.26 1.29 1.23 1.24 1.23 1.21 1.19 1.16 1.19 1.24 1.21 1.18 1.13 1.05 1.04 1.13 1.16 1.27 1.40 1.49 1.50 1.50 1.55 1.53
0.42 0.48 0.39 0.37 0.19 0.18 0.22 0.21 0.22 0.34 0.44 0.64 0.74 0.81 0.90 1.07 1.15 1.32 1.40 1.32 1.22 1.16 1.16 1.14 1.12 1.11 1.15 1.17 1.18 1.20 1.21 1.21 1.21 1.25 1.21 1.20 1.19 1.20 1.12 1.01 1.06 1.14 1.21 1.32 1.41 1.42 1.48 1.50 1.51
0.41 0.39 0.42 0.43 0.33 0.21 0.21 0.20 0.30 0.33 0.44 0.60 0.70 0.80 0.92 0.99 1.01 1.13 1.27 1.37 1.31 1.23 1.20 1.14 1.15 1.09 1.11 1.13 1.14 1.15 1.18 1.21 1.24 1.20 1.22 1.24 1.23 1.22 1.16 1.08 1.02 1.09 1.16 1.22 1.27 1.38 1.44 1.46 1.48
0.45 0.43 0.43 0.34 0.33 0.33 0.29 0.23 0.39 0.38 0.44 0.55 0.65 0.75 0.88 0.99 1.01 1.07 1.24 1.35 1.37 1.27 1.18 1.16 1.14 1.14 1.13 1.17 1.19 1.20 1.20 1.21 1.19 1.16 1.19 1.24 1.20 1.22 1.18 1.11 0.99 1.01 1.08 1.17 1.18 1.21 1.34 1.41 1.39

GFSSGP_prec_pwat_072.txt.gz
Precipitable_Water
2.11 2.21 2.30 2.04 1.36 1.29 1.13 1.20 1.45 1.30 1.24 1.44 1.46 1.37 1.32 1.42 1.30 1.11 1.90 2.00 1.97 1.94 1.92 1.83 1.68 1.55 1.46 1.47 1.55 1.65 1.71 1.78 1.79 1.75 1.77 1.79 1.88 1.80 1.77 1.66 1.62 1.73 1.76 1.52 1.48 1.54 1.57 1.51 1.50
2.10 2.12 2.09 1.78 1.20 1.02 1.03 1.31 1.31 1.38 1.40 1.51 1.50 1.44 1.35 1.26 1.58 1.64 1.73 1.94 1.96 1.89 1.78 1.67 1.54 1.50 1.55 1.63 1.72 1.79 1.85 1.91 1.98 1.94 1.93 1.96 2.02 1.86 1.69 1.56 1.77 1.73 1.70 1.57 1.47 1.49 1.58 1.49 1.32
1.99 2.05 1.67 1.43 1.21 1.05 1.04 1.38 1.44 1.48 1.47 1.48 1.42 1.61 1.48 1.39 1.66 1.68 1.87 1.91 1.93 1.81 1.65 1.53 1.55 1.55 1.65 1.67 1.70 1.76 1.85 1.89 1.95 1.98 2.02 2.04 2.01 1.88 1.58 1.70 1.82 1.83 1.71 1.74 1.65 1.53 1.60 1.65 1.59
1.73 1.75 1.67 1.24 1.11 1.25 1.25 1.45 1.53 1.45 1.52 1.54 1.53 1.37 1.60 1.81 1.72 1.78 1.90 1.87 1.81 1.65 1.55 1.44 1.54 1.66 1.63 1.71 1.81 1.76 1.76 1.82 1.90 2.00 1.91 1.93 1.85 1.82 1.70 1.74 1.93 1.99 1.83 1.80 1.83 1.79 1.78 1.91 1.92
1.86 1.63 1.21 1.11 1.14 1.33 1.43 1.55 1.57 1.42 1.47 1.47 1.50 1.34 1.45 1.76 1.89 1.86 1.85 1.79 1.61 1.48 1.46 1.46 1.63 1.71 1.64 1.74 1.63 1.52 1.49 1.56 1.64 1.83 1.87 1.79 1.82 1.78 1.76 1.79 1.91 1.90 1.86 1.78 1.79 1.86 1.84 1.78 1.75
1.49 1.50 1.07 1.01 1.12 1.36 1.50 1.62 1.57 1.52 1.55 1.51 1.45 1.40 1.48 1.81 1.78 1.80 1.81 1.68 1.46 1.40 1.38 1.50 1.62 1.60 1.67 1.54 1.62 1.76 1.73 1.76 1.71 1.76 1.69 1.71 1.75 1.78 1.72 1.73 1.82 1.91 1.86 1.70 1.69 1.79 1.79 1.74 1.69
1.24 1.28 1.10 1.12 1.15 1.26 1.41 1.64 1.52 1.49 1.46 1.44 1.58 1.34 1.55 1.65 1.79 1.80 1.72 1.58 1.39 1.35 1.41 1.51 1.64 1.61 1.55 1.52 1.74 1.84 1.85 1.82 1.78 1.78 1.81 1.79 1.83 1.84 1.84 1.73 1.72 1.80 1.87 1.77 1.65 1.79 1.79 1.77 1.73
1.29 1.35 1.09 1.14 1.11 1.21 1.47 1.53 1.60 1.54 1.46 1.70 1.65 1.31 1.33 1.61 1.77 1.75 1.61 1.48 1.36 1.32 1.42 1.46 1.61 1.67 1.57 1.58 1.69 1.76 1.87 1.80 1.71 1.74 1.78 1.82 1.84 1.84 1.87 1.77 1.73 1.78 1.81 1.77 1.64 1.65 1.74 1.68 1.67
1.43 1.17 1.06 1.10 1.17 1.28 1.47 1.43 1.63 1.72 1.51 1.56 1.58 1.50 1.60 1.74 1.77 1.63 1.45 1.36 1.30 1.30 1.39 1.46 1.52 1.67 1.63 1.61 1.70 1.83 1.72 1.78 1.70 1.80 1.87 1.95 1.93 1.92 2.02 1.89 1.92 1.83 1.73 1.69 1.69 1.77 1.76 1.67 1.65
1.15 1.15 1.20 1.29 1.34 1.30 1.40 1.50 1.49 1.37 1.35 1.36 1.46 1.58 1.69 1.67 1.65 1.48 1.32 1.22 1.18 1.21 1.32 1.41 1.48 1.59 1.58 1.63 1.62 1.68 1.65 1.70 1.73 1.78 1.81 1.88 1.95 2.01 2.03 2.00 1.95 1.90 1.77 1.70 1.66 1.67 1.77 1.96 1.88
1.08 1.09 1.29 1.31 1.40 1.41 1.40 1.42 1.48 1.34 1.23 1.36 1.33 1.45 1.57 1.57 1.56 1.43 1.35 1.28 1.17 1.20 1.27 1.36 1.48 1.54 1.52 1.62 1.60 1.68 1.68 1.68 1.73 1.76 1.82 1.87 1.89 1.88 1.87 1.92 1.85 1.78 1.76 1.76 1.70 1.68 1.79 1.79 1.84
0.87 1.01 1.36 1.39 1.40 1.36 1.40 1.45 1.30 1.37 1.41 1.50 1.52 1.55 1.54 1.51 1.46 1.38 1.32 1.29 1.20 1.16 1.19 1.33 1.45 1.48 1.52 1.59 1.59 1.64 1.60 1.61 1.65 1.76 1.82 1.83 1.85 1.90 1.81 1.81 1.71 1.76 1.78 1.71 1.78 1.78 1.75 1.72 1.70
0.77 0.92 1.18 1.36 1.39 1.33 1.40 1.31 1.29 1.27 1.43 1.52 1.54 1.54 1.51 1.52 1.47 1.42 1.38 1.33 1.20 1.08 1.13 1.29 1.41 1.44 1.50 1.53 1.59 1.59 1.59 1.68 1.71 1.73 1.82 1.89 1.90 1.95 1.90 1.85 1.80 1.83 1.85 1.86 1.86 1.81 1.75 1.63 1.59
0.60 0.71 0.88 1.04 1.10 1.23 1.19 1.24 1.27 1.33 1.47 1.44 1.45 1.44 1.50 1.45 1.44 1.36 1.33 1.26 1.13 1.11 1.10 1.28 1.35 1.41 1.48 1.48 1.58 1.58 1.73 1.75 1.72 1.81 1.87 1.98 2.06 1.99 1.90 1.81 1.79 1.79 1.85 1.84 1.88 1.86 1.81 1.68 1.61
0.51 0.52 0.58 0.73 0.97 1.01 1.20 1.02 1.14 1.42 1.37 1.34 1.37 1.37 1.45 1.45 1.45 1.34 1.35 1.27 1.15 1.12 1.13 1.20 1.29 1.36 1.43 1.46 1.55 1.59 1.74 1.74 1.84 1.92 1.98 1.97 2.05 2.01 1.93 1.88 1.79 1.76 1.82 1.83 1.79 1.79 1.77 1.61 1.60
0.31 0.41 0.42 0.60 0.89 0.98 1.10 0.88 1.23 1.43 1.35 1.25 1.30 1.30 1.39 1.40 1.41 1.43 1.40 1.32 1.19 1.15 1.12 1.19 1.25 1.26 1.37 1.44 1.49 1.60 1.72 1.80 1.83 1.87 1.96 1.99 2.04 2.07 1.95 1.87 1.90 1.89 1.81 1.76 1.67 1.61 1.55 1.50 1.48
0.21 0.24 0.33 0.64 0.87 0.94 1.01 0.95 1.30 1.39 1.31 1.21 1.26 1.25 1.33 1.36 1.38 1.45 1.44 1.36 1.22 1.18 1.15 1.11 1.17 1.21 1.31 1.43 1.49 1.58 1.67 1.76 1.81 1.85 1.83 1.85 1.83 1.94 2.07 1.93 1.86 1.80 1.71 1.62 1.52 1.46 1.51 1.39 1.38
0.13 0.16 0.23 0.49 0.75 0.89 0.92 1.02 1.18 1.31 1.25 1.20 1.23 1.24 1.16 1.26 1.30 1.44 1.45 1.41 1.29 1.24 1.19 1.10 1.12 1.18 1.28 1.39 1.45 1.50 1.58 1.66 1.69 1.68 1.69 1.73 1.75 1.83 2.03 1.89 1.87 1.78 1.66 1.64 1.63 1.48 1.45 1.38 1.28
0.18 0.17 0.19 0.37 0.76 0.79 0.78 0.95 1.12 1.25 1.26 1.17 1.14 1.16 1.07 1.23 1.39 1.47 1.48 1.43 1.30 1.27 1.17 1.05 1.04 1.11 1.19 1.22 1.27 1.32 1.35 1.47 1.56 1.62 1.65 1.71 1.72 1.73 1.80 1.84 1.84 1.81 1.76 1.78 1.63 1.49 1.35 1.27 1.32
0.19 0.20 0.20 0.34 0.60 0.70 0.74 0.81 1.09 1.27 1.22 1.27 1.29 1.31 1.17 1.18 1.30 1.39 1.43 1.41 1.31 1.27 1.21 1.07 1.00 1.05 1.13 1.16 1.27 1.34 1.39 1.47 1.55 1.59 1.61 1.69 1.68 1.72 1.71 1.71 1.77 1.92 1.84 1.69 1.57 1.56 1.40 1.29 1.24
0.19 0.17 0.19 0.25 0.44 0.65 0.69 0.72 0.85 1.10 1.24 1.27 1.35 1.49 1.45 1.25 1.20 1.29 1.37 1.38 1.38 1.27 1.24 1.14 1.03 1.01 1.07 1.14 1.23 1.36 1.44 1.48 1.45 1.45 1.48 1.57 1.63 1.70 1.80 1.74 1.74 1.85 1.90 1.73 1.63 1.49 1.41 1.23 1.20
0.17 0.20 0.19 0.24 0.35 0.37 0.61 0.45 0.74 0.91 1.07 1.17 1.25 1.35 1.39 1.36 1.37 1.28 1.28 1.35 1.34 1.31 1.38 1.27 1.18 1.07 1.03 1.09 1.17 1.22 1.20 1.17 1.29 1.38 1.44 1.48 1.57 1.56 1.68 1.72 1.71 1.71 1.86 1.76 1.69 1.61 1.42 1.34 1.11
0.23 0.24 0.21 0.18 0.25 0.36 0.57 0.52 0.61 0.89 0.91 1.04 1.16 1.31 1.34 1.40 1.41 1.42 1.25 1.23 1.38 1.44 1.37 1.40 1.27 1.17 1.08 1.07 1.11 1.18 1.19 1.21 1.33 1.35 1.43 1.46 1.52 1.53 1.52 1.54 1.70 1.70 1.78 1.76 1.72 1.66 1.49 1.42 1.40
0.35 0.25 0.23 0.19 0.16 0.19 0.34 0.43 0.47 0.78 0.88 1.00 1.12 1.28 1.33 1.39 1.44 1.50 1.47 1.29 1.33 1.46 1.45 1.40 1.36 1.19 1.16 1.10 1.07 1.09 1.13 1.21 1.29 1.26 1.25 1.31 1.36 1.38 1.43 1.47 1.51 1.57 1.59 1.69 1.71 1.76 1.59 1.54 1.43
0.35 0.26 0.20 0.14 0.11 0.09 0.22 0.32 0.43 0.65 0.94 0.96 1.04 1.23 1.32 1.40 1.46 1.47 1.42 1.30 1.15 1.24 1.36 1.39 1.38 1.25 1.21 1.19 1.10 1.08 1.13 1.28 1.33 1.32 1.27 1.26 1.25 1.24 1.28 1.35 1.33 1.46 1.54 1.62 1.67 1.67 1.67 1.56 1.51
0.33 0.33 0.20 0.16 0.11 0.11 0.14 0.18 0.30 0.57 0.71 0.91 0.93 1.02 1.25 1.32 1.42 1.47 1.47 1.36 1.30 1.15 1.20 1.32 1.32 1.28 1.28 1.26 1.19 1.16 1.20 1.27 1.33 1.34 1.31 1.30 1.25 1.22 1.27 1.29 1.30 1.33 1.43 1.55 1.61 1.64 1.59 1.69 1.57
0.39 0.31 0.36 0.25 0.29 0.21 0.16 0.17 0.36 0.46 0.54 0.70 0.78 0.86 1.09 1.21 1.29 1.36 1.45 1.45 1.38 1.29 1.15 1.16 1.26 1.34 1.35 1.29 1.30 1.28 1.26 1.24 1.25 1.30 1.33 1.32 1.33 1.28 1.24 1.23 1.20 1.23 1.31 1.39 1.50 1.52 1.57 1.59 1.61
0.40 0.46 0.35 0.35 0.22 0.20 0.23 0.20 0.19 0.32 0.47 0.57 0.63 0.71 0.94 1.05 1.21 1.32 1.37 1.44 1.39 1.32 1.27 1.23 1.19 1.24 1.33 1.36 1.35 1.29 1.25 1.24 1.25 1.28 1.26 1.29 1.31 1.29 1.23 1.17 1.12 1.15 1.25 1.30 1.39 1.41 1.50 1.54 1.55
0.37 0.37 0.42 0.40 0.35 0.25 0.22 0.22 0.30 0.35 0.43 0.46 0.57 0.66 0.82 0.91 1.02 1.25 1.36 1.45 1.42 1.32 1.29 1.24 1.24 1.18 1.27 1.34 1.36 1.33 1.27 1.24 1.24 1.23 1.24 1.29 1.33 1.31 1.25 1.19 1.12 1.07 1.17 1.26 1.32 1.35 1.39 1.41 1.48
0.44 0.42 0.38 0.36 0.34 0.36 0.32 0.27 0.45 0.40 0.39 0.51 0.53 0.63 0.78 0.89 1.04 1.17 1.30 1.45 1.50 1.41 1.33 1.26 1.21 1.20 1.16 1.24 1.28 1.27 1.28 1.25 1.22 1.21 1.25 1.30 1.29 1.31 1.24 1.23 1.15 1.09 1.10 1.22 1.25 1.24 1.31 1.35 1.39

GFSSGP_prec_pwat_075.txt.gz
Precipitable_Water
2.04 2.18 2.28 2.08 1.38 1.38 1.17 1.23 1.44 1.26 1.27 1.42 1.44 1.37 1.39 1.43 1.37 1.16 1.90 1.97 1.92 1.79 1.79 1.76 1.70 1.64 1.61 1.59 1.61 1.62 1.63 1.74 1.78 1.81 1.77 1.76 1.73 1.80 1.68 1.60 1.74 1.77 1.55 1.47 1.53 1.57 1.52 1.53 1.55
2.06 2.12 2.14 1.77 1.25 1.08 1.13 1.33 1.29 1.31 1.41 1.48 1.42 1.41 1.42 1.30 1.59 1.66 1.75 1.91 1.88 1.75 1.71 1.67 1.57 1.48 1.51 1.65 1.69 1.76 1.80 1.85 1.80 1.82 1.94 2.01 1.86 1.72 1.57 1.79 1.74 1.72 1.61 1.43 1.45 1.62 1.61 1.39 1.57
1.99 2.07 1.74 1.50 1.27 1.09 1.08 1.30 1.39 1.41 1.47 1.50 1.42 1.50 1.52 1.41 1.62 1.68 1.86 1.91 1.86 1.71 1.66 1.58 1.50 1.56 1.68 1.77 1.86 1.88 1.88 1.97 1.98 1.99 1.97 1.98 1.87 1.59 1.69 1.84 1.85 1.74 1.81 1.63 1.49 1.60 1.64 1.50 1.45
1.73 1.79 1.71 1.28 1.14 1.27 1.33 1.44 1.45 1.35 1.47 1.57 1.48 1.36 1.58 1.82 1.69 1.81 1.91 1.88 1.75 1.67 1.54 1.55 1.55 1.67 1.71 1.71 1.75 1.82 1.90 1.98 1.97 1.91 1.92 1.87 1.84 1.71 1.82 1.89 1.94 1.82 1.79 1.81 1.74 1.75 1.94 1.82 1.63
1.83 1.73 1.28 1.19 1.25 1.33 1.47 1.49 1.48 1.37 1.39 1.42 1.56 1.38 1.43 1.76 1.89 1.84 1.88 1.83 1.64 1.51 1.45 1.50 1.68 1.64 1.74 1.82 1.70 1.64 1.68 1.78 1.92 1.88 1.84 1.88 1.84 1.80 1.82 1.85 1.89 1.86 1.78 1.80 1.86 1.89 1.82 1.82 1.81
1.53 1.59 1.13 1.05 1.20 1.39 1.51 1.60 1.48 1.42 1.54 1.49 1.47 1.40 1.48 1.81 1.77 1.79 1.85 1.74 1.55 1.43 1.43 1.57 1.79 1.68 1.72 1.60 1.53 1.52 1.61 1.64 1.78 1.76 1.81 1.84 1.80 1.71 1.77 1.81 1.84 1.76 1.67 1.74 1.81 1.80 1.71 1.67 1.61
1.32 1.38 1.20 1.18 1.15 1.30 1.41 1.61 1.45 1.53 1.48 1.40 1.57 1.39 1.54 1.63 1.79 1.80 1.75 1.59 1.52 1.36 1.48 1.60 1.63 1.71 1.57 1.71 1.79 1.81 1.82 1.81 1.78 1.73 1.79 1.82 1.83 1.77 1.73 1.70 1.79 1.84 1.73 1.66 1.77 1.77 1.74 1.71 1.59
1.30 1.36 1.35 1.14 1.13 1.32 1.37 1.58 1.64 1.48 1.53 1.74 1.68 1.36 1.35 1.62 1.78 1.76 1.67 1.44 1.40 1.39 1.49 1.60 1.60 1.58 1.56 1.75 1.83 1.86 1.80 1.78 1.73 1.75 1.74 1.78 1.79 1.79 1.76 1.71 1.75 1.81 1.74 1.65 1.70 1.73 1.65 1.67 1.67
1.33 1.14 1.09 1.14 1.14 1.36 1.45 1.36 1.59 1.89 1.58 1.59 1.61 1.59 1.67 1.74 1.74 1.64 1.44 1.32 1.29 1.33 1.46 1.60 1.61 1.56 1.60 1.69 1.79 1.82 1.82 1.70 1.74 1.81 1.89 1.92 1.84 2.03 2.05 1.94 1.77 1.71 1.67 1.66 1.71 1.64 1.59 1.59 1.57
1.11 0.99 1.26 1.45 1.36 1.52 1.36 1.38 1.54 1.41 1.40 1.41 1.47 1.63 1.72 1.66 1.60 1.47 1.28 1.20 1.16 1.24 1.38 1.49 1.65 1.61 1.64 1.69 1.81 1.73 1.74 1.74 1.82 1.77 2.03 1.97 2.20 2.13 2.01 1.90 1.87 1.74 1.69 1.61 1.64 1.76 1.99 2.12 1.79
1.05 1.01 1.50 1.54 1.40 1.43 1.44 1.44 1.52 1.34 1.18 1.30 1.32 1.48 1.58 1.55 1.52 1.40 1.28 1.23 1.15 1.25 1.35 1.42 1.60 1.53 1.73 1.58 1.75 1.61 1.83 1.83 1.83 1.75 1.95 1.81 1.78 1.87 1.90 1.84 1.80 1.72 1.85 1.68 1.61 1.63 2.19 1.91 1.82
0.90 1.12 1.21 1.36 1.39 1.34 1.44 1.57 1.34 1.40 1.68 1.60 1.47 1.58 1.57 1.50 1.45 1.35 1.25 1.23 1.18 1.22 1.31 1.40 1.56 1.53 1.86 1.58 1.65 1.67 1.63 1.73 1.69 1.77 1.86 1.79 1.95 1.89 2.02 1.80 1.76 1.79 1.94 1.77 1.78 1.89 1.66 1.67 2.01
0.77 1.03 1.08 1.47 1.45 1.39 1.47 1.50 1.46 1.34 1.46 1.44 1.50 1.58 1.54 1.51 1.48 1.41 1.34 1.29 1.21 1.19 1.28 1.40 1.51 1.54 1.63 1.60 1.70 1.66 1.62 1.62 1.78 1.74 1.85 1.97 1.97 1.91 1.93 1.88 1.93 2.06 1.78 1.83 1.93 1.66 1.72 1.52 1.45
0.68 0.84 1.00 1.22 1.28 1.31 1.23 1.37 1.30 1.39 1.41 1.38 1.43 1.50 1.55 1.51 1.47 1.39 1.34 1.29 1.21 1.19 1.23 1.39 1.47 1.55 1.59 1.66 1.64 1.65 1.63 1.81 1.67 1.81 1.92 2.10 2.08 1.95 1.89 1.81 1.93 1.87 2.09 1.98 1.86 1.80 1.89 1.57 1.62
0.57 0.55 0.67 0.85 1.04 1.09 1.22 1.17 1.14 1.40 1.40 1.38 1.36 1.46 1.52 1.52 1.51 1.39 1.36 1.31 1.22 1.15 1.20 1.34 1.42 1.51 1.54 1.62 1.62 1.65 1.90 1.65 1.78 1.97 1.97 2.13 2.11 1.95 1.93 1.88 1.88 1.86 1.90 1.73 1.75 1.68 1.64 1.57 1.82
0.38 0.45 0.45 0.59 0.71 0.90 1.03 0.85 1.14 1.39 1.34 1.29 1.33 1.35 1.48 1.51 1.46 1.44 1.40 1.36 1.22 1.14 1.16 1.33 1.37 1.45 1.49 1.55 1.63 1.67 1.70 1.77 1.92 2.02 2.04 2.06 2.10 2.01 2.00 1.94 1.88 1.80 1.91 1.87 1.63 1.65 1.83 1.40 1.56
0.21 0.27 0.36 0.48 0.60 0.79 0.89 0.91 1.43 1.46 1.39 1.35 1.25 1.29 1.41 1.43 1.46 1.44 1.43 1.38 1.24 1.14 1.18 1.24 1.31 1.36 1.43 1.52 1.60 1.68 1.73 1.90 1.90 1.94 2.11 1.94 2.02 2.05 1.98 1.89 1.83 1.78 1.81 1.68 1.49 1.76 1.71 1.40 1.40
0.14 0.16 0.26 0.37 0.59 0.78 0.85 0.92 1.28 1.40 1.35 1.35 1.26 1.26 1.32 1.36 1.40 1.43 1.43 1.40 1.29 1.18 1.21 1.20 1.26 1.33 1.39 1.49 1.54 1.63 1.70 1.76 1.94 1.89 1.94 1.83 1.94 2.00 2.00 1.87 1.85 1.74 1.68 1.76 1.56 1.53 1.59 1.57 1.56
0.20 0.17 0.17 0.28 0.65 0.74 0.78 0.89 1.01 1.43 1.22 1.29 1.24 1.21 1.20 1.31 1.42 1.48 1.46 1.41 1.30 1.21 1.21 1.13 1.17 1.27 1.32 1.35 1.36 1.46 1.51 1.64 1.69 1.68 1.76 1.68 1.86 1.85 1.92 1.84 1.84 1.83 1.73 1.94 1.47 1.39 1.25 1.24 1.34
0.21 0.20 0.18 0.21 0.33 0.69 0.77 0.77 1.07 1.17 1.10 1.22 1.19 1.16 1.17 1.31 1.35 1.42 1.43 1.40 1.32 1.22 1.22 1.15 1.13 1.19 1.25 1.28 1.36 1.48 1.52 1.57 1.62 1.63 1.65 1.71 1.72 1.78 1.74 2.01 1.78 1.81 1.79 1.67 1.51 1.80 1.37 1.27 1.37
0.22 0.20 0.20 0.22 0.30 0.49 0.69 0.72 0.95 1.18 1.43 1.30 1.33 1.29 1.25 1.24 1.31 1.33 1.38 1.37 1.35 1.25 1.23 1.17 1.11 1.13 1.15 1.22 1.32 1.45 1.50 1.61 1.50 1.68 1.58 1.67 1.72 1.77 1.85 1.78 2.18 1.82 1.82 1.72 1.55 1.39 1.62 1.41 1.15
0.22 0.23 0.22 0.22 0.24 0.35 0.59 0.47 0.67 1.04 1.35 1.21 1.25 1.36 1.35 1.24 1.35 1.36 1.40 1.37 1.32 1.27 1.35 1.27 1.16 1.13 1.11 1.16 1.18 1.28 1.30 1.28 1.42 1.50 1.53 1.66 1.67 1.75 1.78 1.78 1.84 1.84 1.76 1.76 1.67 1.52 1.56 1.47 1.13
0.27 0.27 0.22 0.20 0.23 0.30 0.42 0.42 0.51 0.77 0.79 1.04 1.19 1.30 1.42 1.42 1.37 1.32 1.27 1.34 1.41 1.39 1.34 1.36 1.26 1.16 1.12 1.07 1.15 1.20 1.26 1.33 1.43 1.44 1.55 1.55 1.53 1.58 1.61 1.67 1.72 1.75 1.78 1.76 1.76 1.63 1.48 1.47 1.43
0.37 0.30 0.26 0.23 0.18 0.15 0.28 0.41 0.42 0.64 0.80 0.95 1.17 1.27 1.36 1.46 1.42 1.41 1.51 1.41 1.36 1.48 1.41 1.41 1.38 1.20 1.15 1.11 1.05 1.18 1.16 1.29 1.28 1.35 1.44 1.40 1.52 1.48 1.50 1.52 1.60 1.65 1.76 1.67 1.73 1.68 1.55 1.63 1.54
0.37 0.32 0.22 0.17 0.15 0.12 0.16 0.27 0.53 0.61 0.87 0.94 1.09 1.21 1.32 1.44 1.47 1.46 1.49 1.54 1.39 1.27 1.37 1.37 1.39 1.33 1.18 1.14 1.06 1.15 1.17 1.14 1.31 1.41 1.31 1.33 1.35 1.39 1.47 1.38 1.44 1.54 1.53 1.70 1.74 1.73 1.70 1.54 1.42
0.34 0.30 0.23 0.17 0.15 0.12 0.14 0.15 0.32 0.63 0.94 1.09 1.26 1.19 1.28 1.40 1.46 1.48 1.52 1.57 1.53 1.33 1.25 1.36 1.36 1.36 1.34 1.14 1.09 1.10 1.16 1.15 1.18 1.42 1.39 1.32 1.36 1.37 1.53 1.44 1.39 1.39 1.58 1.49 1.64 1.66 1.60 1.59 1.50
0.34 0.31 0.32 0.25 0.26 0.19 0.16 0.15 0.22 0.36 0.60 0.82 1.22 1.17 1.23 1.32 1.45 1.50 1.56 1.60 1.57 1.48 1.31 1.22 1.31 1.39 1.41 1.28 1.17 1.13 1.14 1.11 1.20 1.38 1.39 1.46 1.42 1.43 1.42 1.35 1.33 1.34 1.37 1.48 1.59 1.58 1.64 1.82 1.65
0.41 0.46 0.30 0.31 0.22 0.20 0.24 0.20 0.16 0.23 0.38 0.58 0.80 1.05 1.06 1.28 1.32 1.46 1.56 1.60 1.61 1.58 1.51 1.40 1.26 1.31 1.41 1.35 1.29 1.19 1.13 1.14 1.23 1.34 1.38 1.38 1.41 1.42 1.50 1.35 1.25 1.23 1.27 1.38 1.40 1.48 1.57 1.64 1.59
0.37 0.38 0.43 0.39 0.32 0.25 0.25 0.29 0.36 0.26 0.35 0.51 0.57 0.75 0.91 1.00 1.13 1.32 1.45 1.56 1.59 1.63 1.59 1.49 1.39 1.27 1.35 1.43 1.35 1.30 1.26 1.19 1.18 1.27 1.30 1.31 1.41 1.43 1.34 1.33 1.24 1.16 1.16 1.29 1.33 1.31 1.46 1.53 1.46
0.34 0.37 0.39 0.37 0.34 0.33 0.32 0.32 0.46 0.37 0.36 0.50 0.60 0.70 0.77 0.84 0.99 1.16 1.37 1.49 1.56 1.56 1.49 1.39 1.34 1.26 1.25 1.33 1.36 1.32 1.35 1.29 1.25 1.19 1.21 1.29 1.31 1.40 1.38 1.35 1.29 1.20 1.13 1.19 1.25 1.27 1.29 1.31 1.34